• Em Portugal
  • Lista de países
  • Para 7 dias
  • Temperatura da água
  • Mapas de satélite
  • Mapa do tempo
  • Widgets de tempo
  • user-avatar
    Iniciar Sessão

    Previsão horária em Lankaran

    Hoje, 22 Outubro, Segunda-feira

    Tempo Temperatura Precipitação Vento Pressão Humidade
    00:00 +13°C° 0 mm 2 m/s 634 mmHg 53%
    01:00 +13°C° 0 mm 2 m/s 634 mmHg 54%
    02:00 +12°C° 0 mm 2 m/s 634 mmHg 55%
    03:00 +12°C° 0 mm 2 m/s 634 mmHg 56%
    04:00 +12°C° 0 mm 2 m/s 634 mmHg 57%
    05:00 +12°C° 0 mm 2 m/s 634 mmHg 58%
    06:00 +10°C° 0 mm 2 m/s 634 mmHg 58%
    07:00 +13°C° 0 mm 2 m/s 635 mmHg 54%
    08:00 +14°C° 0 mm 3 m/s 636 mmHg 49%
    09:00 +17°C° 0 mm 3 m/s 636 mmHg 44%
    10:00 +18°C° 0 mm 3 m/s 636 mmHg 43%
    11:00 +18°C° 0 mm 4 m/s 636 mmHg 42%
    12:00 +19°C° 0 mm 4 m/s 636 mmHg 40%
    13:00 +19°C° 0.1 mm 4 m/s 636 mmHg 41%
    14:00 +19°C° 0.1 mm 4 m/s 636 mmHg 42%
    15:00 +19°C° 0.1 mm 3 m/s 636 mmHg 42%
    16:00 +17°C° 0.1 mm 3 m/s 635 mmHg 48%
    17:00 +16°C° 0.1 mm 2 m/s 635 mmHg 53%
    18:00 +14°C° 0.1 mm 2 m/s 635 mmHg 59%
    19:00 +14°C° 0.1 mm 1 m/s 635 mmHg 60%
    20:00 +13°C° 0.1 mm 1 m/s 635 mmHg 61%
    21:00 +13°C° 0.1 mm 1 m/s 635 mmHg 61%
    22:00 +12°C° 0 mm 1 m/s 635 mmHg 62%
    23:00 +12°C° 0 mm 2 m/s 635 mmHg 62%

    Amanhã, 23 Outubro, Terça-feira

    Tempo Temperatura Precipitação Vento Pressão Humidade
    00:00 +12°C° 0 mm 2 m/s 635 mmHg 62%
    01:00 +10°C° 0 mm 2 m/s 635 mmHg 62%
    02:00 +10°C° 0 mm 2 m/s 635 mmHg 62%
    03:00 +10°C° 0 mm 2 m/s 635 mmHg 62%
    04:00 +10°C° 0 mm 2 m/s 635 mmHg 63%
    05:00 +9°C° 0 mm 2 m/s 634 mmHg 65%
    06:00 +9°C° 0 mm 2 m/s 634 mmHg 66%
    07:00 +12°C° 0 mm 2 m/s 635 mmHg 59%
    08:00 +14°C° 0 mm 2 m/s 636 mmHg 53%
    09:00 +16°C° 0 mm 2 m/s 636 mmHg 46%
    10:00 +17°C° 0 mm 3 m/s 636 mmHg 43%
    11:00 +18°C° 0 mm 3 m/s 636 mmHg 41%
    12:00 +19°C° 0 mm 3 m/s 636 mmHg 38%
    13:00 +19°C° 0 mm 3 m/s 636 mmHg 39%
    14:00 +19°C° 0 mm 3 m/s 635 mmHg 39%
    15:00 +19°C° 0 mm 3 m/s 635 mmHg 40%
    16:00 +17°C° 0 mm 3 m/s 634 mmHg 44%
    17:00 +16°C° 0 mm 2 m/s 634 mmHg 48%
    18:00 +14°C° 0 mm 2 m/s 633 mmHg 53%
    19:00 +14°C° 0 mm 2 m/s 634 mmHg 52%
    20:00 +13°C° 0 mm 2 m/s 634 mmHg 51%
    21:00 +13°C° 0 mm 2 m/s 634 mmHg 51%
    22:00 +13°C° 0 mm 2 m/s 633 mmHg 51%
    23:00 +12°C° 0 mm 2 m/s 633 mmHg 50%

    Depois de amanhã, 24 Outubro, Quarta-feira

    Tempo Temperatura Precipitação Vento Pressão Humidade
    00:00 +12°C° 0 mm 2 m/s 633 mmHg 50%
    01:00 +12°C° 0 mm 2 m/s 633 mmHg 51%
    02:00 +12°C° 0 mm 2 m/s 633 mmHg 51%
    03:00 +12°C° 0 mm 2 m/s 632 mmHg 52%
    04:00 +12°C° 0 mm 2 m/s 632 mmHg 55%
    05:00 +10°C° 0 mm 2 m/s 632 mmHg 57%
    06:00 +10°C° 0 mm 2 m/s 632 mmHg 59%
    07:00 +12°C° 0 mm 3 m/s 633 mmHg 54%
    08:00 +14°C° 0 mm 3 m/s 633 mmHg 49%
    09:00 +17°C° 0 mm 4 m/s 634 mmHg 44%
    10:00 +18°C° 0 mm 4 m/s 634 mmHg 41%
    11:00 +19°C° 0 mm 5 m/s 633 mmHg 37%
    12:00 +20°C° 0 mm 5 m/s 633 mmHg 34%
    13:00 +20°C° 0.1 mm 5 m/s 632 mmHg 35%
    14:00 +20°C° 0.1 mm 5 m/s 632 mmHg 36%
    15:00 +20°C° 0.1 mm 6 m/s 631 mmHg 37%
    16:00 +17°C° 0 mm 5 m/s 631 mmHg 39%
    17:00 +16°C° 0 mm 5 m/s 631 mmHg 42%
    18:00 +15°C° 0 mm 5 m/s 630 mmHg 44%
    19:00 +15°C° 0 mm 5 m/s 630 mmHg 45%
    20:00 +14°C° 0 mm 5 m/s 630 mmHg 47%
    21:00 +14°C° 0 mm 4 m/s 630 mmHg 48%
    22:00 +14°C° 0 mm 5 m/s 629 mmHg 49%
    23:00 +14°C° 0 mm 5 m/s 629 mmHg 50%

    25 Outubro, Quinta-feira

    Tempo Temperatura Precipitação Vento Pressão Humidade
    00:00 +13°C° 0 mm 5 m/s 629 mmHg 51%
    01:00 +13°C° 0 mm 5 m/s 629 mmHg 54%
    02:00 +13°C° 0 mm 5 m/s 628 mmHg 57%
    03:00 +12°C° 0 mm 5 m/s 628 mmHg 59%
    04:00 +12°C° 0 mm 5 m/s 628 mmHg 60%
    05:00 +12°C° 0 mm 5 m/s 628 mmHg 61%
    06:00 +11°C° 0 mm 4 m/s 629 mmHg 62%
    07:00 +14°C° 0 mm 5 m/s 629 mmHg 53%
    08:00 +16°C° 0 mm 6 m/s 630 mmHg 45%
    09:00 +18°C° 0 mm 7 m/s 630 mmHg 36%
    10:00 +20°C° 0 mm 7 m/s 630 mmHg 33%
    11:00 +21°C° 0 mm 8 m/s 630 mmHg 30%
    12:00 +23°C° 0 mm 8 m/s 630 mmHg 27%
    13:00 +23°C° 0 mm 8 m/s 629 mmHg 27%
    14:00 +23°C° 0 mm 8 m/s 629 mmHg 26%
    15:00 +23°C° 0 mm 8 m/s 629 mmHg 26%
    16:00 +21°C° 0 mm 7 m/s 628 mmHg 30%
    17:00 +19°C° 0 mm 6 m/s 628 mmHg 34%
    18:00 +17°C° 0 mm 5 m/s 628 mmHg 38%
    19:00 +16°C° 0 mm 5 m/s 628 mmHg 40%
    20:00 +16°C° 0 mm 6 m/s 627 mmHg 43%
    21:00 +16°C° 0 mm 6 m/s 627 mmHg 45%
    22:00 +16°C° 0 mm 7 m/s 627 mmHg 47%
    23:00 +15°C° 0 mm 8 m/s 628 mmHg 48%

    26 Outubro, Sexta-feira

    Tempo Temperatura Precipitação Vento Pressão Humidade
    00:00 +15°C° 0 mm 9 m/s 628 mmHg 50%
    01:00 +15°C° 0 mm 8 m/s 628 mmHg 52%
    02:00 +14°C° 0 mm 7 m/s 628 mmHg 55%
    03:00 +14°C° 0 mm 6 m/s 628 mmHg 57%
    04:00 +13°C° 0 mm 5 m/s 628 mmHg 60%
    05:00 +13°C° 0 mm 5 m/s 628 mmHg 63%
    06:00 +13°C° 0 mm 4 m/s 629 mmHg 65%
    07:00 +13°C° 0.5 mm 5 m/s 629 mmHg 65%
    08:00 +13°C° 0.5 mm 6 m/s 630 mmHg 65%
    09:00 +12°C° 0.5 mm 7 m/s 630 mmHg 65%
    10:00 +15°C° 0.1 mm 7 m/s 630 mmHg 60%
    11:00 +16°C° 0.1 mm 8 m/s 630 mmHg 54%
    12:00 +17°C° 0.1 mm 8 m/s 630 mmHg 49%
    13:00 +17°C° 0 mm 8 m/s 630 mmHg 47%
    14:00 +17°C° 0 mm 8 m/s 630 mmHg 45%
    15:00 +18°C° 0 mm 8 m/s 630 mmHg 43%
    16:00 +15°C° 0 mm 7 m/s 630 mmHg 52%
    17:00 +13°C° 0 mm 6 m/s 631 mmHg 62%
    18:00 +10°C° 0 mm 6 m/s 631 mmHg 71%
    19:00 +10°C° 0 mm 6 m/s 631 mmHg 74%
    20:00 +9°C° 0 mm 5 m/s 632 mmHg 77%
    21:00 +9°C° 0 mm 5 m/s 632 mmHg 79%
    22:00 +8°C° 0.3 mm 5 m/s 633 mmHg 81%
    23:00 +8°C° 0.3 mm 5 m/s 633 mmHg 83%

    27 Outubro, Sábado

    Tempo Temperatura Precipitação Vento Pressão Humidade
    00:00 +7°C° 0.3 mm 5 m/s 633 mmHg 84%
    01:00 +7°C° 0.8 mm 5 m/s 633 mmHg 85%
    02:00 +6°C° 0.8 mm 5 m/s 634 mmHg 86%
    03:00 +5°C° 0.8 mm 6 m/s 634 mmHg 86%
    04:00 +5°C° 1.3 mm 5 m/s 634 mmHg 86%
    05:00 +5°C° 1.3 mm 5 m/s 635 mmHg 86%
    06:00 +3°C° 1.3 mm 5 m/s 635 mmHg 86%
    07:00 +4°C° 1.4 mm 4 m/s 636 mmHg 85%
    08:00 +4°C° 1.4 mm 4 m/s 637 mmHg 84%
    09:00 +4°C° 1.4 mm 4 m/s 638 mmHg 84%
    10:00 +4°C° 1.6 mm 4 m/s 638 mmHg 83%
    11:00 +4°C° 1.6 mm 4 m/s 638 mmHg 83%
    12:00 +4°C° 1.6 mm 4 m/s 638 mmHg 83%
    13:00 +4°C° 1.1 mm 3 m/s 638 mmHg 83%
    14:00 +4°C° 1.1 mm 3 m/s 639 mmHg 82%
    15:00 +4°C° 1.1 mm 3 m/s 639 mmHg 82%
    16:00 +4°C° 0.4 mm 2 m/s 639 mmHg 83%
    17:00 +4°C° 0.4 mm 2 m/s 640 mmHg 84%
    18:00 +4°C° 0.4 mm 2 m/s 640 mmHg 85%
    19:00 +4°C° 0.1 mm 2 m/s 641 mmHg 86%
    20:00 +5°C° 0.1 mm 1 m/s 641 mmHg 87%
    21:00 +5°C° 0.1 mm 1 m/s 641 mmHg 88%
    22:00 +5°C° 0.1 mm 1 m/s 641 mmHg 89%
    23:00 +5°C° 0.1 mm 1 m/s 641 mmHg 89%

    28 Outubro, Domingo

    Tempo Temperatura Precipitação Vento Pressão Humidade
    00:00 +5°C° 0.1 mm 1 m/s 641 mmHg 90%
    01:00 +5°C° 0 mm 1 m/s 641 mmHg 91%
    02:00 +5°C° 0 mm 1 m/s 641 mmHg 91%
    03:00 +5°C° 0 mm 1 m/s 641 mmHg 92%
    04:00 +5°C° 0 mm 1 m/s 641 mmHg 92%
    05:00 +5°C° 0 mm 1 m/s 641 mmHg 92%
    06:00 +5°C° 0 mm 1 m/s 642 mmHg 92%
    07:00 +6°C° 0.1 mm 1 m/s 642 mmHg 88%
    08:00 +7°C° 0.1 mm 1 m/s 642 mmHg 83%
    09:00 +8°C° 0.1 mm 1 m/s 643 mmHg 79%
    10:00 +9°C° 0.1 mm 1 m/s 643 mmHg 76%
    11:00 +9°C° 0.1 mm 1 m/s 643 mmHg 74%
    12:00 +10°C° 0.1 mm 1 m/s 642 mmHg 72%
    13:00 +9°C° 0 mm 2 m/s 642 mmHg 71%
    14:00 +9°C° 0 mm 2 m/s 642 mmHg 71%
    15:00 +9°C° 0 mm 2 m/s 642 mmHg 70%
    16:00 +9°C° 0 mm 2 m/s 642 mmHg 75%
    17:00 +8°C° 0 mm 2 m/s 642 mmHg 80%
    18:00 +7°C° 0 mm 2 m/s 642 mmHg 84%
    19:00 +7°C° 0 mm 2 m/s 642 mmHg 85%
    20:00 +7°C° 0 mm 2 m/s 641 mmHg 85%
    21:00 +7°C° 0 mm 1 m/s 641 mmHg 86%
    22:00 +7°C° 0 mm 1 m/s 641 mmHg 85%
    23:00 +7°C° 0 mm 1 m/s 641 mmHg 85%
    Mostrar mais